WAT5464 LYTV-BKPR

Flight info

Callsign WAT5464
Flight time N/A
Altitude 31000
Route NIK DCT MEDUX MEDUX1D
Aircraft P180/L-SBDFGM3RWXY/LB1

Departure

Time N/A
Airport Tivat Airport (LYTV)

Arrival

Time 2026-04-20 22:22
Airport Priština Adem Jashari International Airport (BKPR)
Time Latitude Longitude Altitude Speed Heading
2026-04-20 21:56 42.77479 19.00750 14873 ft 303 kts 91°
2026-04-20 21:56 42.77396 19.03589 15090 ft 304 kts 91°
2026-04-20 21:56 42.77323 19.06510 15305 ft 305 kts 90°
2026-04-20 21:56 42.77262 19.09360 15517 ft 307 kts 90°
2026-04-20 21:57 42.77196 19.12269 15737 ft 308 kts 90°
2026-04-20 21:57 42.77128 19.15187 15947 ft 309 kts 90°
2026-04-20 21:57 42.77058 19.18120 16145 ft 310 kts 90°
2026-04-20 21:57 42.76989 19.21053 16358 ft 311 kts 90°
2026-04-20 21:58 42.76918 19.24007 16532 ft 312 kts 90°
2026-04-20 21:58 42.76849 19.26967 16697 ft 314 kts 90°
2026-04-20 21:58 42.76766 19.29946 16885 ft 315 kts 90°
2026-04-20 21:58 42.76694 19.32933 16967 ft 316 kts 90°
2026-04-20 21:59 42.76620 19.35927 17069 ft 317 kts 90°
2026-04-20 21:59 42.76546 19.38935 17209 ft 318 kts 90°
2026-04-20 21:59 42.76471 19.41952 17395 ft 320 kts 90°
2026-04-20 21:59 42.76387 19.44980 17585 ft 321 kts 90°
2026-04-20 22:00 42.76306 19.48019 17764 ft 322 kts 89°
2026-04-20 22:00 42.76229 19.51064 17961 ft 323 kts 89°
2026-04-20 22:00 42.76149 19.54130 18031 ft 327 kts 89°
2026-04-20 22:00 42.76063 19.57242 18032 ft 332 kts 89°
2026-04-20 22:01 42.75972 19.60414 18038 ft 337 kts 89°
2026-04-20 22:01 42.75890 19.63606 18036 ft 340 kts 89°
2026-04-20 22:01 42.75799 19.66837 18036 ft 343 kts 89°
2026-04-20 22:01 42.75707 19.70079 18034 ft 343 kts 89°
2026-04-20 22:02 42.75610 19.73333 18033 ft 345 kts 89°
2026-04-20 22:02 42.75516 19.76606 18035 ft 347 kts 89°
2026-04-20 22:02 42.75428 19.79850 18033 ft 348 kts 89°
2026-04-20 22:02 42.75329 19.83151 18029 ft 350 kts 89°
2026-04-20 22:03 42.75226 19.86457 18032 ft 349 kts 89°
2026-04-20 22:03 42.75134 19.89753 18031 ft 349 kts 89°
2026-04-20 22:03 42.75034 19.93067 18034 ft 350 kts 89°
2026-04-20 22:03 42.74925 19.96373 18024 ft 350 kts 89°
2026-04-20 22:04 42.74830 19.99683 18018 ft 350 kts 89°
2026-04-20 22:04 42.74631 20.02982 18007 ft 352 kts 99°
2026-04-20 22:04 42.73956 20.06185 18016 ft 352 kts 107°
2026-04-20 22:04 42.73221 20.09366 18005 ft 352 kts 104°
2026-04-20 22:05 42.72598 20.12579 18004 ft 351 kts 102°
2026-04-20 22:05 42.71976 20.15790 18012 ft 351 kts 103°
2026-04-20 22:05 42.71279 20.18978 18012 ft 352 kts 106°
2026-04-20 22:05 42.70572 20.22161 17999 ft 351 kts 104°
2026-04-20 22:06 42.69946 20.25359 18001 ft 350 kts 102°
2026-04-20 22:06 42.69308 20.28540 18005 ft 349 kts 104°
2026-04-20 22:06 42.68624 20.31658 18003 ft 349 kts 105°
2026-04-20 22:06 42.67949 20.34833 17901 ft 352 kts 104°
2026-04-20 22:07 42.67294 20.38072 17617 ft 359 kts 104°
2026-04-20 22:07 42.66605 20.41369 17290 ft 366 kts 105°
2026-04-20 22:07 42.65881 20.44710 16942 ft 371 kts 105°
2026-04-20 22:07 42.65169 20.48099 16591 ft 375 kts 104°
2026-04-20 22:08 42.64467 20.51517 16234 ft 377 kts 104°
2026-04-20 22:08 42.63736 20.54942 15882 ft 378 kts 105°
2026-04-20 22:08 42.62995 20.58368 15522 ft 378 kts 105°
2026-04-20 22:08 42.62277 20.61805 15168 ft 378 kts 104°
2026-04-20 22:09 42.61559 20.65238 14826 ft 378 kts 105°
2026-04-20 22:09 42.60818 20.68654 14478 ft 377 kts 105°
2026-04-20 22:09 42.60094 20.72035 14134 ft 370 kts 105°
2026-04-20 22:09 42.59392 20.75375 13793 ft 365 kts 105°
2026-04-20 22:10 42.58690 20.78659 13435 ft 360 kts 105°
2026-04-20 22:10 42.58009 20.81801 13108 ft 335 kts 105°
2026-04-20 22:10 42.57380 20.84744 12806 ft 316 kts 105°
2026-04-20 22:10 42.56777 20.87577 12518 ft 315 kts 105°
2026-04-20 22:11 42.56151 20.90466 12237 ft 324 kts 106°
2026-04-20 22:11 42.55514 20.93432 11940 ft 331 kts 105°
2026-04-20 22:11 42.54868 20.96447 11638 ft 335 kts 106°
2026-04-20 22:11 42.54208 20.99498 11328 ft 338 kts 106°
2026-04-20 22:12 42.53542 21.02550 11020 ft 335 kts 106°
2026-04-20 22:12 42.52897 21.05556 10717 ft 330 kts 106°
2026-04-20 22:12 42.52257 21.08520 10416 ft 325 kts 107°
2026-04-20 22:12 42.51613 21.11444 10116 ft 322 kts 107°
2026-04-20 22:13 42.50987 21.14342 9811 ft 318 kts 107°
2026-04-20 22:13 42.50377 21.17159 9513 ft 307 kts 107°
2026-04-20 22:13 42.49780 21.19896 9238 ft 298 kts 108°
2026-04-20 22:13 42.48893 21.22357 8960 ft 288 kts 132°
2026-04-20 22:14 42.47369 21.24030 8707 ft 278 kts 152°
2026-04-20 22:14 42.45591 21.24890 8458 ft 268 kts 175°
2026-04-20 22:14 42.43754 21.24972 8218 ft 262 kts 184°
2026-04-20 22:14 42.41936 21.25013 7983 ft 261 kts 182°
2026-04-20 22:15 42.40131 21.25082 7741 ft 259 kts 182°
2026-04-20 22:15 42.38362 21.25084 7519 ft 257 kts 183°
2026-04-20 22:15 42.36573 21.25091 7221 ft 257 kts 184°
2026-04-20 22:15 42.34905 21.24392 6885 ft 252 kts 217°
2026-04-20 22:16 42.33926 21.22494 6549 ft 250 kts 254°
2026-04-20 22:16 42.34009 21.20174 6213 ft 253 kts 289°
2026-04-20 22:16 42.35064 21.18269 5888 ft 256 kts 314°
2026-04-20 22:16 42.36327 21.16584 5589 ft 254 kts 310°
2026-04-20 22:17 42.37358 21.14668 5283 ft 251 kts 298°
2026-04-20 22:17 42.38137 21.12562 4961 ft 249 kts 293°
2026-04-20 22:17 42.38903 21.10461 4669 ft 248 kts 295°
2026-04-20 22:17 42.39687 21.08382 4363 ft 248 kts 296°
2026-04-20 22:18 42.40663 21.06533 4429 ft 237 kts 313°
2026-04-20 22:18 42.42012 21.05280 4309 ft 236 kts 333°
2026-04-20 22:18 42.43559 21.04871 4307 ft 211 kts 355°
2026-04-20 22:18 42.44885 21.04856 4186 ft 177 kts 357°
2026-04-20 22:19 42.46085 21.04813 4079 ft 173 kts 354°
2026-04-20 22:19 42.47336 21.04664 3982 ft 188 kts 352°
2026-04-20 22:19 42.48675 21.04445 3657 ft 194 kts 351°
2026-04-20 22:19 42.49934 21.04268 3254 ft 171 kts 354°
2026-04-20 22:20 42.51067 21.04172 2966 ft 156 kts 356°
2026-04-20 22:20 42.52094 21.04076 2684 ft 141 kts 356°
2026-04-20 22:20 42.53040 21.03973 2516 ft 133 kts 357°
2026-04-20 22:20 42.53954 21.03900 2349 ft 130 kts 357°
2026-04-20 22:21 42.54852 21.03824 2157 ft 127 kts 356°
2026-04-20 22:21 42.55730 21.03739 1941 ft 125 kts 357°
2026-04-20 22:21 42.56583 21.03658 1786 ft 120 kts 356°
2026-04-20 22:21 42.57384 21.03588 1771 ft 103 kts 355°
2026-04-20 22:22 42.57831 21.03534 1768 ft 52 kts 356°
2026-04-20 22:22 42.58144 21.03503 1770 ft 39 kts 355°
2026-04-20 22:22 42.58260 21.03430 1772 ft 16 kts 247°
2026-04-20 22:22 42.58251 21.03320 1770 ft 1 kts 266°
2026-04-20 22:23 42.58251 21.03315 1770 ft 1 kts 266°
2026-04-20 22:23 42.58243 21.03251 1771 ft 8 kts 229°
2026-04-20 22:23 42.58195 21.03248 1770 ft 8 kts 176°
2026-04-20 22:23 42.58089 21.03261 1772 ft 17 kts 175°
2026-04-20 22:24 42.58011 21.03226 1770 ft 11 kts 265°
2026-04-20 22:24 42.58018 21.03137 1770 ft 8 kts 332°
2026-04-20 22:24 42.58091 21.03131 1771 ft 12 kts 356°
2026-04-20 22:24 42.58163 21.03112 1772 ft 10 kts 336°
2026-04-20 22:25 42.58219 21.03109 1770 ft 6 kts
2026-04-20 22:25 42.58238 21.03144 1771 ft 5 kts 87°
2026-04-20 22:25 42.58237 21.03169 1770 ft 0 kts 91°
2026-04-20 22:26 42.58237 21.03188 1770 ft 10 kts 86°
2026-04-20 22:26 42.58286 21.03240 1772 ft 11 kts 355°
2026-04-20 22:27 42.58410 21.03151 1771 ft 12 kts 262°
2026-04-20 22:27 42.58423 21.03083 1772 ft 4 kts 299°
2026-04-20 22:27 42.58425 21.03074 1773 ft 0 kts 292°
2026-04-20 22:27 42.58426 21.03073 1773 ft 0 kts 292°
2026-04-20 22:28 42.58426 21.03072 1772 ft 0 kts 292°